User: anonymous   Login
Location: Unspecified
(0.0000°N, 0.0000°E)
Time: 03:59:12
(UTC+00:00)
Language:

FREEDOM - Orbit

View from above orbital plane
View from above orbital plane
View from above satellite
View from above satellite

Ground track
Ground track

The orbit data is extracted from the following two-line orbital elements,

1 41932U 98067KU  17327.40059321  .00030398  00000-0  29940-3 0  9993
2 41932  51.6395 312.2134 0004978 120.8558 239.2928 15.65684469 48420
Epoch (UTC): 23 November 2017 09:36:51
Eccentricity: 0.0004978
inclination: 51.6395°
perigee height: 368 km
apogee height: 374 km
right ascension of ascending node: 312.2134°
argument of perigee: 120.8558°
revolutions per day: 15.65684469
mean anomaly at epoch: 239.2928°
orbit number at epoch: 4842

The dashed part of the orbit path shows where the satellite is in the earth's shadow,  

DLR